�������l�o���
Date,Time,MP-1(��Sv/h),MP-2(��Sv/h),MP-3(��Sv/h),MP-4(��Sv/h),MP-5(��Sv/h),MP-6(��Sv/h),MP-7(��Sv/h),����,����(m/s),���J
2014/12/19,00:00,0.600,0.384,0.638,0.577,0.568,0.261,0.233,�k�k��,2.8,��
2014/12/19,00:10,0.601,0.384,0.638,0.576,0.568,0.259,0.232,���k��,3.3,��
2014/12/19,00:20,0.601,0.382,0.638,0.577,0.570,0.259,0.234,�k��,4.2,��
2014/12/19,00:30,0.599,0.383,0.639,0.578,0.568,0.259,0.234,�k�k��,2.4,��
2014/12/19,00:40,0.602,0.385,0.638,0.576,0.569,0.260,0.234,�k�k��,2.8,��
2014/12/19,00:50,0.600,0.383,0.637,0.575,0.570,0.260,0.233,�k,4.7,��
2014/12/19,01:00,0.601,0.384,0.637,0.577,0.570,0.260,0.233,�k,6.4,��
2014/12/19,01:10,0.601,0.383,0.638,0.576,0.569,0.261,0.233,�k�k��,6.8,��
2014/12/19,01:20,0.602,0.384,0.640,0.577,0.570,0.261,0.233,�k�k��,5.8,��
2014/12/19,01:30,0.601,0.383,0.636,0.578,0.570,0.260,0.233,�k�k��,4.7,��
2014/12/19,01:40,0.601,0.384,0.638,0.578,0.569,0.260,0.232,�k�k��,3.9,��
2014/12/19,01:50,0.600,0.384,0.636,0.577,0.569,0.261,0.233,�k�k��,3.3,��
2014/12/19,02:00,0.601,0.384,0.636,0.576,0.569,0.260,0.232,���k��,4.0,��
2014/12/19,02:10,0.601,0.384,0.637,0.576,0.569,0.260,0.233,�k��,5.7,��
2014/12/19,02:20,0.602,0.384,0.636,0.577,0.569,0.260,0.233,�k�k��,3.7,��
2014/12/19,02:30,0.600,0.382,0.639,0.576,0.570,0.260,0.233,�k�k��,4.6,��
2014/12/19,02:40,0.601,0.383,0.637,0.575,0.569,0.260,0.233,�k,3.1,��
2014/12/19,02:50,0.601,0.383,0.639,0.576,0.568,0.259,0.233,�k��,3.3,��
2014/12/19,03:00,0.599,0.385,0.639,0.575,0.569,0.260,0.233,�k��,2.2,��
2014/12/19,03:10,0.600,0.383,0.639,0.577,0.570,0.259,0.234,�k��,2.4,��
2014/12/19,03:20,0.601,0.384,0.640,0.577,0.570,0.260,0.233,�k��,4.1,��
2014/12/19,03:30,0.600,0.383,0.639,0.578,0.569,0.260,0.233,�k��,4.6,��
2014/12/19,03:40,0.601,0.384,0.639,0.577,0.568,0.261,0.233,���k��,4.2,��
2014/12/19,03:50,0.601,0.384,0.639,0.576,0.568,0.261,0.233,���k��,5.5,��
2014/12/19,04:00,0.601,0.383,0.637,0.576,0.570,0.260,0.233,���k��,5.9,��
2014/12/19,04:10,0.601,0.383,0.639,0.577,0.567,0.259,0.233,���k��,9.5,��
2014/12/19,04:20,0.601,0.383,0.639,0.578,0.569,0.261,0.232,��,11.6,��
2014/12/19,04:30,0.599,0.384,0.638,0.576,0.571,0.262,0.233,���k��,8.3,��
2014/12/19,04:40,0.602,0.383,0.637,0.576,0.568,0.259,0.233,��,10.6,��
2014/12/19,04:50,0.602,0.384,0.640,0.575,0.569,0.261,0.232,��,9.3,��
2014/12/19,05:00,0.601,0.384,0.639,0.579,0.569,0.262,0.232,���k��,7.4,��
2014/12/19,05:10,0.602,0.384,0.638,0.577,0.569,0.261,0.234,���k��,8.6,��
2014/12/19,05:20,0.600,0.384,0.639,0.576,0.569,0.261,0.233,���k��,7.5,��
2014/12/19,05:30,0.601,0.384,0.637,0.576,0.569,0.260,0.232,���k��,6.1,��
2014/12/19,05:40,0.601,0.384,0.638,0.576,0.569,0.261,0.232,���k��,3.9,��
2014/12/19,05:50,0.600,0.382,0.639,0.576,0.568,0.261,0.233,�k��,3.4,��
2014/12/19,06:00,0.599,0.383,0.640,0.577,0.568,0.261,0.233,���k��,3.9,��
2014/12/19,06:10,0.602,0.383,0.638,0.576,0.568,0.260,0.233,���k��,3.3,��
2014/12/19,06:20,0.602,0.383,0.638,0.576,0.569,0.260,0.233,���k��,3.1,��
2014/12/19,06:30,0.601,0.382,0.636,0.577,0.570,0.260,0.231,���k��,4.4,��
2014/12/19,06:40,0.600,0.383,0.637,0.577,0.569,0.260,0.232,�k��,4.5,��
2014/12/19,06:50,0.600,0.382,0.637,0.576,0.568,0.261,0.233,���k��,6.7,��
2014/12/19,07:00,0.599,0.383,0.639,0.577,0.568,0.260,0.234,���k��,6.4,��
2014/12/19,07:10,0.600,0.384,0.640,0.577,0.568,0.259,0.233,�k��,5.4,��
2014/12/19,07:20,0.601,0.383,0.639,0.577,0.567,0.259,0.233,�k��,4.2,��
2014/12/19,07:30,0.601,0.383,0.638,0.576,0.570,0.259,0.232,�k��,6.7,��
2014/12/19,07:40,0.601,0.383,0.637,0.577,0.568,0.260,0.233,�k��,6.7,��
2014/12/19,07:50,0.600,0.382,0.637,0.576,0.568,0.261,0.231,�k�k��,6.2,��
2014/12/19,08:00,0.600,0.382,0.637,0.576,0.569,0.260,0.233,�k�k��,6.4,��
2014/12/19,08:10,0.600,0.382,0.639,0.578,0.567,0.259,0.232,�k�k��,5.0,��
2014/12/19,08:20,0.602,0.383,0.639,0.577,0.568,0.258,0.232,�k,6.2,��
2014/12/19,08:30,0.601,0.383,0.638,0.578,0.569,0.259,0.233,�k,5.0,��
2014/12/19,08:40,0.599,0.384,0.638,0.576,0.566,0.258,0.231,�k,4.4,��
2014/12/19,08:50,0.601,0.384,0.637,0.576,0.568,0.259,0.231,�k,5.3,��
2014/12/19,09:00,0.601,0.384,0.638,0.578,0.569,0.260,0.232,�k,4.4,��
2014/12/19,09:10,0.601,0.384,0.638,0.577,0.571,0.259,0.232,�k,2.2,��
2014/12/19,09:20,0.602,0.385,0.638,0.579,0.569,0.260,0.233,�k,2.4,��
2014/12/19,09:30,0.602,0.383,0.639,0.578,0.569,0.261,0.231,�k,3.6,��
2014/12/19,09:40,0.600,0.385,0.637,0.577,0.569,0.260,0.232,�k,3.6,��
2014/12/19,09:50,0.601,0.384,0.639,0.577,0.569,0.260,0.231,�k�k��,2.7,��
2014/12/19,10:00,0.602,0.385,0.639,0.578,0.569,0.261,0.231,�k�k��,2.6,��
2014/12/19,10:10,0.601,0.384,0.639,0.579,0.570,0.260,0.231,�k��,2.4,��
2014/12/19,10:20,0.602,0.384,0.639,0.579,0.570,0.260,0.232,���k��,2.2,��
2014/12/19,10:30,0.601,0.384,0.638,0.578,0.568,0.261,0.232,���k��,1.0,��
2014/12/19,10:40,0.601,0.384,0.638,0.578,0.569,0.261,0.233,��,1.5,��
2014/12/19,10:50,0.601,0.385,0.639,0.579,0.570,0.261,0.233,��쓌,2.5,��
2014/12/19,11:00,0.600,0.384,0.639,0.578,0.569,0.261,0.233,��쓌,2.0,��
2014/12/19,11:10,0.604,0.384,0.638,0.579,0.569,0.261,0.232,�쓌,1.7,��
2014/12/19,11:20,0.601,0.386,0.638,0.578,0.570,0.262,0.232,�쓌,1.7,��
2014/12/19,11:30,0.601,0.384,0.637,0.581,0.568,0.260,0.233,�쓌,1.1,��
2014/12/19,11:40,0.602,0.384,0.640,0.579,0.570,0.261,0.233,���쓌,1.4,��
2014/12/19,11:50,0.602,0.385,0.639,0.581,0.569,0.260,0.233,���쓌,1.7,��
2014/12/19,12:00,0.602,0.384,0.638,0.579,0.570,0.262,0.232,���쓌,2.1,��
2014/12/19,12:10,0.602,0.384,0.638,0.578,0.568,0.261,0.234,�쓌,2.1,��
2014/12/19,12:20,0.602,0.384,0.639,0.579,0.572,0.261,0.233,�쓌,2.0,��
2014/12/19,12:30,0.602,0.385,0.640,0.580,0.572,0.259,0.233,�쓌,2.5,��
2014/12/19,12:40,0.601,0.384,0.639,0.579,0.570,0.261,0.233,��,2.5,��
2014/12/19,12:50,0.601,0.384,0.640,0.579,0.569,0.261,0.232,���쓌,3.2,��
2014/12/19,13:00,0.602,0.385,0.638,0.581,0.570,0.261,0.234,���쓌,2.2,��
2014/12/19,13:10,0.601,0.385,0.640,0.580,0.570,0.260,0.234,���쓌,1.5,��
2014/12/19,13:20,0.602,0.385,0.637,0.579,0.570,0.260,0.232,���쓌,2.2,��
2014/12/19,13:30,0.602,0.386,0.640,0.579,0.569,0.262,0.234,�쓌,2.2,��
2014/12/19,13:40,0.600,0.385,0.640,0.580,0.571,0.261,0.233,��,1.2,��
2014/12/19,13:50,0.603,0.385,0.638,0.579,0.570,0.260,0.233,��,2.6,��
2014/12/19,14:00,0.602,0.385,0.639,0.579,0.571,0.261,0.233,��쓌,2.1,��
2014/12/19,14:10,0.602,0.384,0.639,0.578,0.571,0.260,0.233,��,2.6,��
2014/12/19,14:20,0.603,0.385,0.637,0.579,0.570,0.262,0.233,�k��,3.2,��
2014/12/19,14:30,0.601,0.384,0.639,0.578,0.569,0.259,0.233,�쐼,1.3,��
2014/12/19,14:40,0.601,0.384,0.638,0.579,0.570,0.260,0.232,�k��,0.6,��
2014/12/19,14:50,0.602,0.384,0.637,0.579,0.569,0.261,0.233,-,CALM,��
2014/12/19,15:00,0.602,0.385,0.640,0.579,0.571,0.260,0.236,���k��,0.6,��
2014/12/19,15:10,0.602,0.384,0.638,0.578,0.570,0.261,0.233,-,CALM,��
2014/12/19,15:20,0.599,0.383,0.640,0.579,0.571,0.260,0.232,���k��,1.0,��
2014/12/19,15:30,0.601,0.383,0.638,0.579,0.571,0.261,0.233,�쐼,0.6,��
2014/12/19,15:40,0.603,0.385,0.639,0.580,0.569,0.260,0.232,-,CALM,��
2014/12/19,15:50,0.602,0.384,0.638,0.578,0.569,0.260,0.233,-,CALM,��
2014/12/19,16:00,0.601,0.384,0.637,0.578,0.570,0.259,0.233,�k��,1.6,��
2014/12/19,16:10,0.602,0.383,0.640,0.577,0.570,0.260,0.233,���k��,2.6,��
2014/12/19,16:20,0.603,0.384,0.636,0.578,0.570,0.260,0.233,�k��,2.1,��
2014/12/19,16:30,0.600,0.384,0.637,0.578,0.570,0.261,0.233,���k��,1.7,��
2014/12/19,16:40,0.602,0.384,0.638,0.577,0.572,0.261,0.234,���k��,2.5,��
2014/12/19,16:50,0.602,0.383,0.636,0.579,0.570,0.259,0.233,���k��,3.3,��
2014/12/19,17:00,0.600,0.383,0.638,0.578,0.569,0.259,0.234,�k��,2.1,��
2014/12/19,17:10,0.602,0.384,0.638,0.579,0.570,0.260,0.232,�k��,1.3,��
2014/12/19,17:20,0.600,0.383,0.639,0.578,0.568,0.260,0.233,�k��,0.6,��
2014/12/19,17:30,0.602,0.384,0.638,0.578,0.569,0.260,0.233,���쐼,0.8,��
2014/12/19,17:40,0.601,0.383,0.638,0.577,0.571,0.259,0.233,�쐼,1.5,��
2014/12/19,17:50,0.601,0.382,0.638,0.577,0.569,0.260,0.233,���쐼,2.9,��
2014/12/19,18:00,0.601,0.383,0.638,0.576,0.569,0.261,0.234,��,4.2,��
2014/12/19,18:10,0.600,0.384,0.635,0.577,0.571,0.261,0.234,��,3.1,��
2014/12/19,18:20,0.601,0.384,0.639,0.577,0.569,0.261,0.234,��,4.8,��
2014/12/19,18:30,0.601,0.383,0.637,0.578,0.569,0.262,0.234,��,4.7,��
2014/12/19,18:40,0.602,0.383,0.638,0.578,0.569,0.261,0.234,��,6.1,��
2014/12/19,18:50,0.602,0.384,0.637,0.577,0.570,0.260,0.234,��,6.4,��
2014/12/19,19:00,0.601,0.383,0.638,0.577,0.570,0.260,0.234,��,5.4,��
2014/12/19,19:10,0.601,0.383,0.639,0.578,0.569,0.260,0.233,��,5.2,��
2014/12/19,19:20,0.602,0.383,0.637,0.578,0.569,0.260,0.233,��,5.1,��
2014/12/19,19:30,0.602,0.385,0.639,0.576,0.571,0.260,0.233,��,4.7,��
2014/12/19,19:40,0.601,0.384,0.638,0.577,0.569,0.261,0.233,���쐼,3.1,��
2014/12/19,19:50,0.601,0.382,0.636,0.579,0.569,0.261,0.234,�쐼,2.1,��
2014/12/19,20:00,0.601,0.383,0.637,0.577,0.567,0.261,0.232,���쐼,2.6,��
2014/12/19,20:10,0.602,0.384,0.637,0.580,0.569,0.262,0.232,���쐼,2.7,��
2014/12/19,20:20,0.601,0.384,0.636,0.578,0.569,0.260,0.233,���쐼,3.0,��
2014/12/19,20:30,0.601,0.384,0.638,0.577,0.570,0.261,0.234,���쐼,2.8,��
2014/12/19,20:40,0.602,0.383,0.638,0.577,0.570,0.261,0.233,���쐼,3.1,��
2014/12/19,20:50,0.601,0.383,0.637,0.578,0.570,0.260,0.233,���쐼,3.3,��
2014/12/19,21:00,0.602,0.383,0.639,0.578,0.569,0.261,0.233,�쐼,3.4,��
2014/12/19,21:10,0.602,0.383,0.638,0.577,0.570,0.260,0.233,�쐼,4.4,��
2014/12/19,21:20,0.601,0.381,0.637,0.578,0.570,0.261,0.234,�쐼,4.8,��
2014/12/19,21:30,0.601,0.383,0.637,0.576,0.569,0.261,0.233,�쐼,5.0,��
2014/12/19,21:40,0.600,0.382,0.639,0.577,0.569,0.262,0.233,�쐼,4.9,��
2014/12/19,21:50,0.599,0.383,0.637,0.578,0.570,0.260,0.232,�쐼,4.7,��
2014/12/19,22:00,0.601,0.383,0.638,0.577,0.568,0.261,0.234,�쐼,5.2,��
2014/12/19,22:10,0.600,0.383,0.638,0.579,0.569,0.260,0.233,�쐼,4.2,��
2014/12/19,22:20,0.600,0.383,0.638,0.577,0.570,0.261,0.234,�쐼,4.2,��
2014/12/19,22:30,0.601,0.384,0.639,0.578,0.570,0.261,0.232,�쐼,2.9,��
2014/12/19,22:40,0.602,0.383,0.637,0.579,0.569,0.262,0.233,�쐼,3.4,��
2014/12/19,22:50,0.602,0.385,0.638,0.578,0.569,0.261,0.233,�쐼,2.6,��
2014/12/19,23:00,0.601,0.383,0.638,0.579,0.570,0.262,0.234,���쐼,2.0,��
2014/12/19,23:10,0.601,0.384,0.639,0.578,0.570,0.260,0.233,�쐼,2.5,��
2014/12/19,23:20,0.603,0.384,0.637,0.577,0.569,0.260,0.233,�쐼,1.2,��
2014/12/19,23:30,0.602,0.383,0.638,0.579,0.570,0.260,0.233,�쐼,2.0,��
2014/12/19,23:40,0.601,0.383,0.639,0.577,0.569,0.262,0.234,�쐼,3.2,��
2014/12/19,23:50,0.599,0.385,0.638,0.578,0.569,0.261,0.234,�쐼,3.6,��
